FENGYUN 1C DEB, 30883

Orbit data source: Space-Track

FENGYUN 1C DEB, 30883 is space debris in SSO originally from a launch on Mon, 10 May 1999 UTC launched from the Taiyaun Space Center, China (TSC). Fengyun 1C debris stems from the Chinese weather satellite Fengyun-1C, which was intentionally destroyed by a Chinese anti-satellite missile in 2007. This event dramatically increased the amount of space debris, with thousands of trackable fragments posing hazards to satellites and human spaceflight. The Fengyun 1C debris cloud has become a focal point in discussions about space sustainability and the need for international regulations to prevent the creation of new debris.

Loading next visibility...
Identifier
30883, 1999-025AXV
Orbit
SSO
Country
Flag of CNCN / PRC
Related business
Manufacturer
Unknown
Mission
Spacecraft
Bus & Motor
Unknown
Mass
Unknown
Launch date (UTC)
1999-05-10 (27 years ago)
Launch vehicle
Unknown
Launch site
Taiyaun Space Center, China (TSC)
Object type
Payload
Rocket body
Debris
Shape & HBR
Unknown shape, 0.1 m
Radar Cross Section
Small (<0.1 m²)

Expand to show TLE details & history
Last TLE update: 3 days ago

TLE from 3 days ago
0 FENGYUN 1C DEB
1 30883U 99025AXV 26103.83116962  .00000183  00000-0  10930-3 0  9993
2 30883  98.3437 138.1275 0111440 221.5365 317.6447 14.14648025986437
Epoch: 2026-04-13T19:56Z
TLE epoch observation values (Epoch: 2026-04-13T19:56:53.055Z)
Latitude
1.56307°
Longitude
177.11839°
Altitude
787.168 km
Speed
7.491 km/s
True Right ascension
21h 13m 25s
True Declination
1° 33' 14"
Sunlit
Object was in daylight at epoch
Visualization orbit readout
Latitude
Unknown
Longitude
Unknown
Altitude
Unknown
Speed
Unknown
Apparent Right ascension
Unknown
Apparent Declination
Unknown
Sunlit
N/A
Visualization observer readout
Local Sidereal Time
09:58:51
Azimuth
Unknown
Elevation
Unknown
Doppler factor
Unknown
Orbital elements
Apogee altitude
921.104 km
Perigee altitude
760.212 km
Semi-major axis
7,218.795 km
Eccentricity
0.01114
Inclination
98.3437°
RAAN
138.1275°
Arg. of periapsis
221.5365°
True anomaly
316.77543°
Mean anomaly
317.6447°
Eccentric anomaly
317.21096°
Mean motion
3.53872 °/min
Orbital period
101.73 mins
BSTAR
0.0001093
Loading maneuver chart data...
Computing Atmospheric mass density...
Loading historical data...
Loading historical data...
Loading historical data...
Loading historical data...
Loading historical data...
Loading historical data...
Loading historical data...

Documentation

Showing up to 5 results
|